SWR151 EKBI-EDLW

Flight info

Callsign SWR151
Flight time 0h 59m
Altitude 34000
Route ALS M852 EKERN N125 ELSOB M170 STADE Y348 DOMEG DOMEG2A
Aircraft A20N/M-SDE2E3FGHIRWXY/LB1

Departure

Time 2026-04-30 19:55
Airport Billund Airport (EKBI)

Arrival

Time 2026-04-30 20:55
Airport Dortmund Airport (EDLW)
Time Latitude Longitude Altitude Speed Heading
2026-04-30 19:33 55.74531 9.14746 233 ft 0 kts 357°
2026-04-30 19:44 55.74525 9.14747 233 ft 1 kts 357°
2026-04-30 19:45 55.74518 9.14747 234 ft 1 kts 357°
2026-04-30 19:45 55.74510 9.14748 233 ft 1 kts 357°
2026-04-30 19:45 55.74502 9.14749 234 ft 1 kts 357°
2026-04-30 19:45 55.74495 9.14749 236 ft 1 kts 357°
2026-04-30 19:46 55.74487 9.14750 236 ft 1 kts 357°
2026-04-30 19:46 55.74479 9.14751 236 ft 1 kts 357°
2026-04-30 19:46 55.74468 9.14752 236 ft 2 kts
2026-04-30 19:46 55.74453 9.14746 236 ft 2 kts 57°
2026-04-30 19:47 55.74450 9.14736 237 ft 0 kts 88°
2026-04-30 19:49 55.74454 9.14826 235 ft 15 kts 85°
2026-04-30 19:49 55.74409 9.14984 235 ft 13 kts 180°
2026-04-30 19:50 55.74309 9.14984 234 ft 16 kts 174°
2026-04-30 19:50 55.74203 9.15048 234 ft 16 kts 111°
2026-04-30 19:50 55.74206 9.15255 236 ft 18 kts 86°
2026-04-30 19:50 55.74212 9.15488 237 ft 20 kts 88°
2026-04-30 19:51 55.74218 9.15672 238 ft 0 kts 85°
2026-04-30 19:51 55.74219 9.15695 238 ft 4 kts 85°
2026-04-30 19:51 55.74224 9.15835 239 ft 20 kts 87°
2026-04-30 19:51 55.74232 9.16113 241 ft 24 kts 87°
2026-04-30 19:52 55.74242 9.16422 243 ft 26 kts 85°
2026-04-30 19:52 55.74253 9.16717 245 ft 22 kts 86°
2026-04-30 19:52 55.74261 9.16999 247 ft 24 kts 87°
2026-04-30 19:52 55.74270 9.17300 249 ft 25 kts 86°
2026-04-30 19:53 55.74278 9.17545 250 ft 16 kts 88°
2026-04-30 19:53 55.74284 9.17759 252 ft 18 kts 87°
2026-04-30 19:53 55.74288 9.17998 253 ft 20 kts 94°
2026-04-30 19:53 55.74199 9.18150 254 ft 20 kts 180°
2026-04-30 19:54 55.74126 9.18019 253 ft 17 kts 267°
2026-04-30 19:54 55.74124 9.17950 252 ft 0 kts 267°
2026-04-30 19:55 55.74122 9.17860 251 ft 31 kts 268°
2026-04-30 19:55 55.74092 9.16920 247 ft 119 kts 267°
2026-04-30 19:55 55.74046 9.15074 468 ft 165 kts 268°
2026-04-30 19:55 55.73978 9.13004 1340 ft 171 kts 267°
2026-04-30 19:56 55.73883 9.10829 2236 ft 183 kts 265°
2026-04-30 19:56 55.74068 9.08495 2852 ft 204 kts 296°
2026-04-30 19:56 55.75020 9.06451 3487 ft 227 kts 317°
2026-04-30 19:56 55.76293 9.04548 4092 ft 251 kts 321°
2026-04-30 19:57 55.77717 9.02531 4804 ft 268 kts 321°
2026-04-30 19:57 55.79176 9.00400 5711 ft 276 kts 318°
2026-04-30 19:57 55.80322 8.97664 6174 ft 279 kts 293°
2026-04-30 19:57 55.80699 8.94325 6382 ft 280 kts 266°
2026-04-30 19:58 55.80213 8.91015 6450 ft 278 kts 240°
2026-04-30 19:58 55.78958 8.88463 6455 ft 274 kts 212°
2026-04-30 19:58 55.77214 8.87232 6453 ft 271 kts 185°
2026-04-30 19:58 55.75367 8.87571 6462 ft 268 kts 158°
2026-04-30 19:59 55.73842 8.89360 6535 ft 270 kts 135°
2026-04-30 19:59 55.72472 8.91661 7092 ft 272 kts 137°
2026-04-30 19:59 55.69558 8.95962 9157 ft 276 kts 141°
2026-04-30 20:00 55.68023 8.98061 10142 ft 281 kts 142°
2026-04-30 20:00 55.66450 9.00169 11035 ft 286 kts 142°
2026-04-30 20:00 55.64821 9.02340 11644 ft 304 kts 142°
2026-04-30 20:00 55.63090 9.04645 11988 ft 327 kts 142°
2026-04-30 20:01 55.58997 9.09342 12428 ft 378 kts 159°
2026-04-30 20:01 55.56383 9.10426 12462 ft 391 kts 170°
2026-04-30 20:01 55.53677 9.10948 12460 ft 391 kts 174°
2026-04-30 20:02 55.48247 9.11677 12459 ft 392 kts 174°
2026-04-30 20:02 55.45532 9.12085 12447 ft 391 kts 173°
2026-04-30 20:03 55.40052 9.13001 12459 ft 404 kts 173°
2026-04-30 20:03 55.37248 9.13488 12646 ft 406 kts 173°
2026-04-30 20:03 55.34439 9.13977 13569 ft 404 kts 173°
2026-04-30 20:03 55.31627 9.14464 14372 ft 408 kts 172°
2026-04-30 20:04 55.28902 9.14937 14981 ft 413 kts 172°
2026-04-30 20:04 55.26034 9.15434 15627 ft 417 kts 173°
2026-04-30 20:04 55.23119 9.15939 16252 ft 422 kts 173°
2026-04-30 20:05 55.17187 9.16963 17508 ft 432 kts 173°
2026-04-30 20:05 55.14177 9.17482 18120 ft 437 kts 173°
2026-04-30 20:05 55.08056 9.18533 19271 ft 446 kts 173°
2026-04-30 20:06 55.04940 9.19067 19657 ft 454 kts 173°
2026-04-30 20:06 55.01820 9.19601 20143 ft 458 kts 173°
2026-04-30 20:06 54.98626 9.20146 20671 ft 462 kts 173°
2026-04-30 20:06 54.95402 9.20696 21171 ft 466 kts 173°
2026-04-30 20:07 54.92149 9.21249 21682 ft 470 kts 173°
2026-04-30 20:07 54.88882 9.21805 22166 ft 473 kts 173°
2026-04-30 20:07 54.82270 9.22927 23121 ft 481 kts 173°
2026-04-30 20:08 54.78974 9.23484 23673 ft 482 kts 173°
2026-04-30 20:08 54.75639 9.24047 24230 ft 483 kts 173°
2026-04-30 20:08 54.72280 9.24614 24539 ft 489 kts 173°
2026-04-30 20:08 54.68853 9.25192 24683 ft 497 kts 173°
2026-04-30 20:09 54.65397 9.25773 24994 ft 500 kts 173°
2026-04-30 20:09 54.61920 9.26356 25296 ft 502 kts 173°
2026-04-30 20:09 54.54926 9.27525 25795 ft 506 kts 173°
2026-04-30 20:10 54.47951 9.28688 26247 ft 507 kts 173°
2026-04-30 20:10 54.44389 9.29280 26592 ft 505 kts 174°
2026-04-30 20:10 54.40952 9.29851 26998 ft 503 kts 174°
2026-04-30 20:11 54.33957 9.30987 27410 ft 505 kts 174°
2026-04-30 20:11 54.30459 9.31536 27669 ft 505 kts 174°
2026-04-30 20:11 54.26961 9.32097 27938 ft 504 kts 174°
2026-04-30 20:12 54.19979 9.33243 28463 ft 503 kts 174°
2026-04-30 20:12 54.16504 9.33819 28716 ft 503 kts 174°
2026-04-30 20:12 54.13011 9.34397 28965 ft 502 kts 174°
2026-04-30 20:13 54.09520 9.34974 29231 ft 502 kts 174°
2026-04-30 20:13 54.06091 9.35538 29478 ft 501 kts 174°
2026-04-30 20:13 54.02625 9.36108 29806 ft 499 kts 174°
2026-04-30 20:13 53.99168 9.36674 30089 ft 499 kts 174°
2026-04-30 20:14 53.95705 9.37241 30288 ft 500 kts 174°
2026-04-30 20:14 53.92237 9.37806 30534 ft 500 kts 174°
2026-04-30 20:14 53.88780 9.38369 30782 ft 499 kts 174°
2026-04-30 20:14 53.85319 9.38931 31052 ft 498 kts 174°
2026-04-30 20:15 53.81862 9.39492 31322 ft 497 kts 174°
2026-04-30 20:15 53.78414 9.40050 31602 ft 496 kts 174°
2026-04-30 20:15 53.74974 9.40605 31886 ft 496 kts 174°
2026-04-30 20:15 53.71538 9.41159 32164 ft 495 kts 174°
2026-04-30 20:16 53.68117 9.41709 32430 ft 494 kts 174°
2026-04-30 20:16 53.61280 9.42805 32434 ft 493 kts 174°
2026-04-30 20:17 53.54501 9.43884 32439 ft 493 kts 175°
2026-04-30 20:17 53.47657 9.43409 32436 ft 493 kts 190°
2026-04-30 20:18 53.41048 9.40360 32431 ft 493 kts 198°
2026-04-30 20:18 53.34544 9.36972 32427 ft 492 kts 198°
2026-04-30 20:19 53.27985 9.33603 32422 ft 492 kts 197°
2026-04-30 20:19 53.21466 9.30275 32420 ft 492 kts 197°
2026-04-30 20:20 53.14903 9.26935 32423 ft 492 kts 197°
2026-04-30 20:20 53.08346 9.23608 32306 ft 489 kts 197°
2026-04-30 20:20 53.05150 9.21991 32004 ft 482 kts 197°
2026-04-30 20:21 53.02993 9.20900 31647 ft 479 kts 197°
2026-04-30 20:21 52.99810 9.19293 31009 ft 476 kts 197°
2026-04-30 20:21 52.95648 9.17083 29840 ft 475 kts 201°
2026-04-30 20:21 52.92633 9.14819 28833 ft 477 kts 208°
2026-04-30 20:22 52.90642 9.13062 28022 ft 479 kts 208°
2026-04-30 20:22 52.87684 9.10440 26884 ft 484 kts 208°
2026-04-30 20:22 52.84753 9.07850 26076 ft 481 kts 207°
2026-04-30 20:22 52.81813 9.05265 25342 ft 476 kts 207°
2026-04-30 20:23 52.78903 9.02716 24611 ft 471 kts 207°
2026-04-30 20:23 52.76016 9.00195 23879 ft 468 kts 207°
2026-04-30 20:23 52.73149 8.97696 23089 ft 463 kts 207°
2026-04-30 20:23 52.70322 8.95236 22343 ft 457 kts 206°
2026-04-30 20:24 52.67525 8.92805 21702 ft 451 kts 206°
2026-04-30 20:24 52.64766 8.90412 21467 ft 448 kts 206°
2026-04-30 20:24 52.61982 8.88002 21412 ft 452 kts 206°
2026-04-30 20:24 52.59198 8.85595 21406 ft 452 kts 206°
2026-04-30 20:25 52.53668 8.80821 21401 ft 451 kts 206°
2026-04-30 20:25 52.50890 8.78428 21401 ft 451 kts 206°
2026-04-30 20:26 52.45361 8.73673 20810 ft 445 kts 206°
2026-04-30 20:26 52.39913 8.69001 19514 ft 437 kts 205°
2026-04-30 20:26 52.37230 8.66705 18864 ft 433 kts 205°
2026-04-30 20:27 52.31926 8.62179 18401 ft 432 kts 205°
2026-04-30 20:27 52.26890 8.56978 18394 ft 435 kts 218°
2026-04-30 20:28 52.22646 8.49897 18393 ft 436 kts 226°
2026-04-30 20:28 52.18612 8.42608 17326 ft 436 kts 226°
2026-04-30 20:29 52.14491 8.35229 15790 ft 442 kts 225°
2026-04-30 20:30 52.08314 8.24222 14570 ft 433 kts 225°
2026-04-30 20:30 52.02307 8.13574 14390 ft 435 kts 225°
2026-04-30 20:31 51.96159 8.02718 14397 ft 435 kts 225°
2026-04-30 20:32 51.90011 7.91908 14394 ft 435 kts 224°
2026-04-30 20:32 51.85985 7.84850 14214 ft 414 kts 224°
2026-04-30 20:33 51.84069 7.81495 14050 ft 398 kts 224°
2026-04-30 20:33 51.80452 7.75184 13270 ft 378 kts 224°
2026-04-30 20:33 51.78668 7.72085 12699 ft 375 kts 224°
2026-04-30 20:34 51.75160 7.65999 12028 ft 370 kts 224°
2026-04-30 20:34 51.71391 7.60547 11529 ft 353 kts 202°
2026-04-30 20:35 51.69114 7.59488 11387 ft 331 kts 181°
2026-04-30 20:35 51.66902 7.59667 11259 ft 311 kts 168°
2026-04-30 20:35 51.62846 7.60648 10736 ft 288 kts 168°
2026-04-30 20:36 51.60861 7.61129 10011 ft 290 kts 168°
2026-04-30 20:36 51.58826 7.61623 8903 ft 302 kts 168°
2026-04-30 20:36 51.54516 7.62631 6691 ft 322 kts 173°
2026-04-30 20:37 51.52251 7.62212 5585 ft 334 kts 195°
2026-04-30 20:37 51.50237 7.60394 4888 ft 331 kts 214°
2026-04-30 20:37 51.48533 7.58144 4643 ft 310 kts 216°
2026-04-30 20:37 51.46942 7.55982 4440 ft 289 kts 216°
2026-04-30 20:38 51.45453 7.53977 4269 ft 270 kts 215°
2026-04-30 20:38 51.44051 7.52120 4120 ft 253 kts 214°
2026-04-30 20:38 51.42728 7.50391 3971 ft 238 kts 214°
2026-04-30 20:39 51.40288 7.46864 3910 ft 241 kts 234°
2026-04-30 20:39 51.39839 7.44355 3908 ft 234 kts 268°
2026-04-30 20:39 51.40274 7.41946 3934 ft 224 kts 302°
2026-04-30 20:40 51.42957 7.40125 3630 ft 214 kts 23°
2026-04-30 20:40 51.44085 7.41428 3305 ft 199 kts 56°
2026-04-30 20:40 51.44916 7.43168 2995 ft 193 kts 61°
2026-04-30 20:41 51.46348 7.46492 2488 ft 167 kts 64°
2026-04-30 20:41 51.46965 7.47975 2284 ft 150 kts 66°
2026-04-30 20:41 51.47499 7.49274 2093 ft 134 kts 68°
2026-04-30 20:41 51.47995 7.50559 1905 ft 132 kts 68°
2026-04-30 20:42 51.48456 7.51780 1727 ft 129 kts 67°
2026-04-30 20:42 51.48925 7.53050 1666 ft 134 kts 67°
2026-04-30 20:42 51.50027 7.56069 1314 ft 172 kts 65°
2026-04-30 20:43 51.50585 7.57648 919 ft 153 kts 63°
2026-04-30 20:43 51.51079 7.59062 645 ft 138 kts 63°
2026-04-30 20:43 51.51519 7.60335 460 ft 124 kts 63°
2026-04-30 20:44 51.52310 7.62598 432 ft 145 kts 62°
2026-04-30 20:44 51.52816 7.64038 1083 ft 155 kts 63°
2026-04-30 20:44 51.53948 7.67423 2473 ft 189 kts 69°
2026-04-30 20:45 51.56119 7.70939 3257 ft 246 kts 36°
2026-04-30 20:45 51.57645 7.72477 3808 ft 277 kts 31°
2026-04-30 20:45 51.59601 7.73368 3978 ft 312 kts
2026-04-30 20:46 51.63935 7.68117 3846 ft 272 kts 272°
2026-04-30 20:46 51.63712 7.65211 3801 ft 248 kts 246°
2026-04-30 20:47 51.62514 7.60591 3987 ft 204 kts 234°
2026-04-30 20:47 51.61836 7.58663 3923 ft 193 kts 236°
2026-04-30 20:48 51.60700 7.54853 3766 ft 190 kts 241°
2026-04-30 20:48 51.60205 7.52910 3906 ft 186 kts 242°
2026-04-30 20:48 51.59737 7.50959 4302 ft 192 kts 243°
2026-04-30 20:48 51.59258 7.48924 3918 ft 192 kts 244°
2026-04-30 20:49 51.58817 7.46939 3524 ft 188 kts 245°
2026-04-30 20:49 51.58388 7.44968 3340 ft 187 kts 244°
2026-04-30 20:49 51.57932 7.43003 3437 ft 187 kts 239°
2026-04-30 20:50 51.56255 7.41054 3505 ft 128 kts 172°
2026-04-30 20:50 51.55426 7.41187 3420 ft 113 kts 165°
2026-04-30 20:50 51.54662 7.41392 3166 ft 114 kts 165°
2026-04-30 20:50 51.53818 7.41564 2880 ft 126 kts 167°
2026-04-30 20:51 51.52983 7.41767 2795 ft 121 kts 162°
2026-04-30 20:51 51.51447 7.42692 2575 ft 117 kts 141°
2026-04-30 20:51 51.50879 7.43610 2361 ft 114 kts 126°
2026-04-30 20:52 51.50449 7.44680 2198 ft 115 kts 122°
2026-04-30 20:52 51.50078 7.45810 2000 ft 114 kts 115°
2026-04-30 20:52 51.49754 7.48353 1775 ft 119 kts 103°
2026-04-30 20:53 51.49601 7.49657 1768 ft 119 kts 99°
2026-04-30 20:53 51.49524 7.50992 1677 ft 122 kts 98°
2026-04-30 20:53 51.49560 7.52363 1364 ft 124 kts 87°
2026-04-30 20:54 51.49927 7.55127 1085 ft 132 kts 73°
2026-04-30 20:54 51.50259 7.56504 933 ft 132 kts 71°
2026-04-30 20:54 51.50645 7.57838 783 ft 133 kts 63°
2026-04-30 20:55 51.51546 7.60400 467 ft 131 kts 63°
2026-04-30 20:55 51.51991 7.61679 414 ft 140 kts 60°
2026-04-30 20:55 51.52319 7.62632 402 ft 35 kts 75°
2026-04-30 20:56 51.52322 7.62665 406 ft 0 kts 105°